Tiempo cada hora Abancay

Hoy, 24 Junio, Jueves

Tiempo Temperatura Precipitaciones Viento Presión Humedad
00:00 +11°C° 0 mm 1 mps 543 mmHg 89%
01:00 +11°C° 0 mm 1 mps 543 mmHg 89%
02:00 +11°C° 0 mm 1 mps 543 mmHg 89%
03:00 +10°C° 0 mm 0 mps 543 mmHg 89%
04:00 +10°C° 0 mm 0 mps 543 mmHg 89%
05:00 +10°C° 0 mm 0 mps 543 mmHg 86%
06:00 +10°C° 0 mm 0 mps 544 mmHg 83%
07:00 +11°C° 0 mm 0 mps 544 mmHg 81%
08:00 +12°C° 0 mm 0 mps 545 mmHg 75%
09:00 +14°C° 0 mm 1 mps 545 mmHg 70%
10:00 +15°C° 0 mm 1 mps 546 mmHg 64%
11:00 +17°C° 0 mm 2 mps 546 mmHg 59%
12:00 +18°C° 0 mm 2 mps 546 mmHg 54%
13:00 +20°C° 0 mm 3 mps 545 mmHg 48%
14:00 +20°C° 0 mm 3 mps 545 mmHg 48%
15:00 +19°C° 0 mm 3 mps 544 mmHg 48%
16:00 +19°C° 0 mm 3 mps 544 mmHg 48%
17:00 +17°C° 0 mm 2 mps 543 mmHg 60%
18:00 +14°C° 0 mm 2 mps 543 mmHg 71%
19:00 +12°C° 0 mm 2 mps 542 mmHg 83%
20:00 +12°C° 0 mm 1 mps 543 mmHg 86%
21:00 +12°C° 0 mm 1 mps 543 mmHg 89%
22:00 +11°C° 0 mm 1 mps 544 mmHg 92%
23:00 +11°C° 0 mm 1 mps 543 mmHg 91%

Mañana, 25 Junio, Viernes

Tiempo Temperatura Precipitaciones Viento Presión Humedad
00:00 +12°C° 0 mm 1 mps 543 mmHg 89%
01:00 +12°C° 0 mm 1 mps 543 mmHg 88%
02:00 +12°C° 0 mm 1 mps 543 mmHg 85%
03:00 +12°C° 0 mm 1 mps 543 mmHg 81%
04:00 +12°C° 0 mm 1 mps 543 mmHg 77%
05:00 +12°C° 0 mm 1 mps 543 mmHg 75%
06:00 +11°C° 0 mm 0 mps 544 mmHg 74%
07:00 +11°C° 0 mm 0 mps 544 mmHg 72%
08:00 +14°C° 0 mm 1 mps 545 mmHg 66%
09:00 +15°C° 0 mm 1 mps 545 mmHg 59%
10:00 +16°C° 0 mm 2 mps 546 mmHg 53%
11:00 +17°C° 0 mm 2 mps 546 mmHg 49%
12:00 +19°C° 0 mm 2 mps 545 mmHg 44%
13:00 +20°C° 0 mm 3 mps 545 mmHg 39%
14:00 +20°C° 0 mm 3 mps 545 mmHg 40%
15:00 +19°C° 0 mm 3 mps 544 mmHg 41%
16:00 +19°C° 0 mm 3 mps 544 mmHg 41%
17:00 +17°C° 0 mm 2 mps 543 mmHg 53%
18:00 +14°C° 0 mm 2 mps 543 mmHg 64%
19:00 +12°C° 0 mm 1 mps 542 mmHg 76%
20:00 +12°C° 0 mm 1 mps 542 mmHg 80%
21:00 +11°C° 0 mm 1 mps 542 mmHg 85%
22:00 +10°C° 0 mm 1 mps 543 mmHg 89%
23:00 +11°C° 0 mm 1 mps 543 mmHg 89%

Pasado mañana, 26 Junio, Sábado

Tiempo Temperatura Precipitaciones Viento Presión Humedad
00:00 +11°C° 0 mm 1 mps 542 mmHg 88%
01:00 +11°C° 0 mm 1 mps 542 mmHg 88%
02:00 +11°C° 0 mm 1 mps 542 mmHg 86%
03:00 +11°C° 0 mm 1 mps 542 mmHg 85%
04:00 +11°C° 0 mm 1 mps 542 mmHg 84%
05:00 +10°C° 0 mm 0 mps 542 mmHg 80%
06:00 +10°C° 0 mm 0 mps 543 mmHg 77%
07:00 +10°C° 0 mm 0 mps 543 mmHg 74%
08:00 +13°C° 0 mm 1 mps 544 mmHg 66%
09:00 +15°C° 0 mm 1 mps 545 mmHg 58%
10:00 +17°C° 0 mm 2 mps 545 mmHg 50%
11:00 +18°C° 0 mm 2 mps 545 mmHg 46%
12:00 +19°C° 0 mm 3 mps 545 mmHg 42%
13:00 +20°C° 0 mm 3 mps 545 mmHg 38%
14:00 +20°C° 0 mm 3 mps 544 mmHg 39%
15:00 +19°C° 0 mm 3 mps 544 mmHg 40%
16:00 +19°C° 0 mm 3 mps 543 mmHg 41%
17:00 +17°C° 0 mm 3 mps 543 mmHg 52%
18:00 +14°C° 0 mm 2 mps 542 mmHg 64%
19:00 +12°C° 0 mm 1 mps 542 mmHg 75%
20:00 +11°C° 0 mm 1 mps 542 mmHg 80%
21:00 +11°C° 0 mm 1 mps 542 mmHg 85%
22:00 +10°C° 0 mm 1 mps 542 mmHg 90%
23:00 +10°C° 0 mm 1 mps 542 mmHg 88%

27 Junio, Domingo

Tiempo Temperatura Precipitaciones Viento Presión Humedad
00:00 +10°C° 0 mm 1 mps 542 mmHg 87%
01:00 +10°C° 0 mm 1 mps 542 mmHg 85%
02:00 +11°C° 0 mm 1 mps 542 mmHg 83%
03:00 +10°C° 0 mm 0 mps 542 mmHg 80%
04:00 +10°C° 0 mm 0 mps 542 mmHg 78%
05:00 +9°C° 0 mm 0 mps 543 mmHg 78%
06:00 +9°C° 0 mm 0 mps 543 mmHg 79%
07:00 +9°C° 0 mm 0 mps 543 mmHg 79%
08:00 +12°C° 0 mm 1 mps 544 mmHg 70%
09:00 +14°C° 0 mm 1 mps 545 mmHg 62%
10:00 +16°C° 0 mm 2 mps 546 mmHg 53%
11:00 +17°C° 0 mm 2 mps 546 mmHg 47%
12:00 +19°C° 0 mm 3 mps 545 mmHg 41%
13:00 +20°C° 0 mm 3 mps 545 mmHg 36%
14:00 +19°C° 0 mm 3 mps 545 mmHg 38%
15:00 +19°C° 0 mm 3 mps 544 mmHg 40%
16:00 +18°C° 0 mm 3 mps 544 mmHg 42%
17:00 +16°C° 0 mm 3 mps 543 mmHg 53%
18:00 +14°C° 0 mm 2 mps 543 mmHg 65%
19:00 +10°C° 0 mm 2 mps 543 mmHg 77%
20:00 +10°C° 0 mm 2 mps 543 mmHg 80%
21:00 +10°C° 0 mm 1 mps 543 mmHg 83%
22:00 +10°C° 0 mm 1 mps 544 mmHg 86%
23:00 +10°C° 0 mm 1 mps 544 mmHg 86%

28 Junio, Lunes

Tiempo Temperatura Precipitaciones Viento Presión Humedad
00:00 +10°C° 0 mm 1 mps 544 mmHg 87%
01:00 +10°C° 0 mm 1 mps 544 mmHg 87%
02:00 +10°C° 0 mm 1 mps 544 mmHg 85%
03:00 +9°C° 0 mm 0 mps 544 mmHg 83%
04:00 +9°C° 0 mm 0 mps 543 mmHg 81%
05:00 +9°C° 0 mm 0 mps 544 mmHg 79%
06:00 +9°C° 0 mm 0 mps 544 mmHg 76%
07:00 +9°C° 0 mm 0 mps 545 mmHg 74%
08:00 +12°C° 0 mm 1 mps 546 mmHg 66%
09:00 +14°C° 0 mm 1 mps 546 mmHg 59%
10:00 +15°C° 0 mm 1 mps 547 mmHg 51%
11:00 +16°C° 0 mm 2 mps 547 mmHg 47%
12:00 +17°C° 0 mm 2 mps 546 mmHg 43%
13:00 +19°C° 0 mm 2 mps 546 mmHg 39%
14:00 +19°C° 0 mm 3 mps 546 mmHg 39%
15:00 +19°C° 0 mm 3 mps 545 mmHg 38%
16:00 +19°C° 0 mm 3 mps 545 mmHg 38%
17:00 +16°C° 0 mm 2 mps 544 mmHg 49%
18:00 +14°C° 0 mm 2 mps 543 mmHg 61%
19:00 +11°C° 0 mm 1 mps 543 mmHg 73%
20:00 +11°C° 0 mm 1 mps 543 mmHg 78%
21:00 +10°C° 0 mm 1 mps 543 mmHg 83%
22:00 +10°C° 0 mm 1 mps 544 mmHg 88%
23:00 +10°C° 0 mm 1 mps 544 mmHg 88%

29 Junio, Martes

Tiempo Temperatura Precipitaciones Viento Presión Humedad
00:00 +10°C° 0 mm 1 mps 544 mmHg 87%
01:00 +10°C° 0 mm 1 mps 544 mmHg 87%
02:00 +9°C° 0 mm 0 mps 544 mmHg 86%
03:00 +9°C° 0 mm 0 mps 544 mmHg 85%
04:00 +9°C° 0 mm 0 mps 544 mmHg 84%
05:00 +9°C° 0 mm 0 mps 544 mmHg 81%
06:00 +9°C° 0 mm 0 mps 545 mmHg 79%
07:00 +10°C° 0 mm 0 mps 545 mmHg 77%
08:00 +11°C° 0 mm 0 mps 546 mmHg 70%
09:00 +14°C° 0 mm 1 mps 546 mmHg 64%
10:00 +16°C° 0 mm 1 mps 547 mmHg 57%
11:00 +17°C° 0 mm 2 mps 547 mmHg 52%
12:00 +18°C° 0 mm 3 mps 547 mmHg 48%
13:00 +19°C° 0 mm 4 mps 547 mmHg 44%
14:00 +19°C° 0 mm 3 mps 546 mmHg 46%
15:00 +18°C° 0 mm 3 mps 545 mmHg 47%
16:00 +18°C° 0 mm 3 mps 545 mmHg 49%
17:00 +14°C° 0 mm 3 mps 544 mmHg 61%
18:00 +13°C° 0 mm 2 mps 544 mmHg 74%
19:00 +11°C° 0 mm 1 mps 543 mmHg 86%
20:00 +10°C° 0 mm 1 mps 543 mmHg 88%
21:00 +10°C° 0 mm 1 mps 544 mmHg 90%
22:00 +10°C° 0 mm 1 mps 544 mmHg 92%
23:00 +10°C° 0 mm 1 mps 544 mmHg 90%
Mostrar más

Necesitamos Su Consentimiento

Meteoprog y nuestros Proveedores de Servicios pueden almacenar y acceder a sus datos personales como cookies, identificadores de dispositivo u otras tecnologías similares de su dispositivo y procesar dichos datos para personalizar contenido y anuncios, además de ofrecer funciones de redes sociales y analizar el tráfico.

  • Almacenar y/o acceder a información en su dispositivo

    Se puede almacenar o acceder a cookies, identificadores de dispositivo u otra información de su dispositivo para los fines anteriormente indicados.

  • Anuncios y contenido personalizados, medición de anuncios y contenido, percepciones del público, y desarrollo de productos

    Los anuncios y el contenido pueden personalizarse en base a su perfil. Se pueden añadir más datos para personalizar mejor los anuncios y contenidos. Se puede medir el rendimiento de los anuncios y contenidos. Se puede obtener la percepción sobre el público que ha visto los anuncios y contenidos. Dichos datos pueden usarse para desarrollar o mejorar la experiencia del usuario, sistemas y software.

Al hacer clic en ‘Estoy De Acuerdo’ usted permitirá el uso de las cookies, identificadores de dispositivo, balizas web u otras tecnologías similares indicadas. Su configuración puede cambiarse desde el navegador de su dispositivo.

Para ciertos fines, los intereses legítimos pueden ser considerados por encima del consentimiento. Puede leer más sobre ello en nuestra Política de Privacidad y Cookies.